www.pogodaiklimat.ru

Погода и климат >> Архив погоды >> Бенин >> Cotonou


ПОГОДА в Cotonou

  • Прогноз погоды в Cotonou
  • Монитор погоды в Cotonou
  • Климат города

АРХИВ ПОГОДЫ в Cotonou

Время (UTC), дата Ветер
(напр.,м/с)
 
Видим.   Явления Облачность Т
(С)
Тd
(С)
f
(%)
Тe
(С)
Тes
(С)
Комфортность P
(гПа)
Po
(гПа)
Тmin
(С)
Tmax
(С)
R
(мм)
R24
(мм)
S
(см)
06 9.07 ЮЗ 5 8000 м 9/6 300 м
[Cu Sc Ac As Ci sp]
+26.2 +24.2 89 +36 +36 очень
душно
1014.2 1013.1 +25.8
12 9.07 ЮЗ 4 10 км 9/4 360 м
[Cu Sc Ci sp]
+29.1 +24.6 77 +41 +48 опасность
перегрева
1015.1 1014.0
18 9.07 ЮЗ 3 10 км 9/4 360 м
[Cb cap Ac trans Ci sp]
+27.7 +24.6 83 +39 +39 очень
душно
1013.0 1011.9
00 10.07 ЮЗ 5 10 км 9/4 360 м
[Sc Ac As Ci sp]
+26.0 +25.0 94 +37 +37 очень
душно
1014.5 1013.4
06 10.07 СЗ 2 8000 м 9/3 330 м
[Cu Sc Ac As Ci sp]
+25.1 +24.2 95 +35 +35 очень
душно
1015.0 1013.9 +25.0
12 10.07 ЮЗ 6 10 км 9/4 360 м
[Cu Sc Ac trans Ci sp]
+28.7 +23.4 73 +39 +42 очень
душно
1015.5 1014.4
18 10.07 ЮЗ 3 10 км 9/3 360 м
[Cb cap Ac As Ci sp]
+27.0 +24.1 84 +37 +37 очень
душно
1012.5 1011.4 +29.5
00 11.07 ЮЗ 3 10 км 9/5 360 м
[Sc Ac As Ci sp]
+26.2 +24.9 93 +37 +37 очень
душно
1014.5 1013.4
06 11.07 СЗ 1 8000 м 9/1 300 м
[Sc Ac As Ci sp]
+24.2 +22.7 91 +32 +32 очень
душно
1014.3 1013.2 +24.0
12 11.07 ЮЗ 5 10 км 9/4 360 м
[Cb cap Ac trans Ci sp]
+28.4 +23.5 75 +39 +42 очень
душно
1015.0 1013.9
18 11.07 Ю 5 10 км 9/3 360 м
[Cu Sc Ac trans Ci sp]
+27.4 +24.0 82 +38 +38 очень
душно
1013.5 1012.4 +29.6
00 12.07 ЮЗ 6 10 км 9/6 330 м
[Sc Ci sp]
+26.7 +24.7 89 +38 +38 очень
душно
1015.5 1014.4
06 12.07 ЮЗ 6 8000 м 9/5 330 м
[Cb cap Ac trans Ci sp]
+26.4 +24.2 88 +37 +37 очень
душно
1014.7 1013.6 +25.0
12 12.07 ЮЗ 6 10 км 9/3 360 м
[Cu Sc Ac trans Ci sp]
+29.0 +24.3 76 +41 +44 опасность
перегрева
1014.9 1013.8
18 12.07 ЮЗ 5 10 км 9/5 330 м
[Cb cap Ac trans Ci sp]
+27.1 +24.2 84 +38 +38 очень
душно
1012.6 1011.5 +29.5
00 13.07 ЮЗ 6 10 км 9/4 330 м
[Sc Ci sp]
+26.1 +23.5 86 +35 +35 очень
душно
1014.6 1013.5
06 13.07 З 2 6000 м 9/5 330 м
[Cu Sc Ac trans Ci sp]
+24.6 +23.4 93 +33 +33 очень
душно
1014.2 1013.1 +24.4
12 13.07 ЮЗ 7 8000 м 9/4 330 м
[Cu Sc Ac As Ci sp]
+28.5 +23.6 75 +39 +41 очень
душно
1014.4 1013.3
18 13.07 Ю 5 8000 м 9/3 360 м
[Cb cap Ac As Ci sp]
+27.0 +24.1 84 +37 +37 очень
душно
1012.2 1011.1 +28.8
00 14.07 ЮЗ 5 8000 м 9/3 330 м
[Sc Ac As Ci sp]
+26.4 +24.4 89 +37 +37 очень
душно
1014.3 1013.2
06 14.07 З 2 8000 м 9/5 330 м
[Cu Sc Ac trans Ci sp]
+25.5 +23.6 89 +35 +35 очень
душно
1013.8 1012.7 +25.1
12 14.07 ЮЗ 7 10 км 9/6 360 м
[Cb cap Ac As Ci sp]
+29.5 +24.5 75 +42 +43 опасность
перегрева
1014.5 1013.4
18 14.07 Ю 4 10 км 9/4 360 м
[Cb cap Ac trans Ci sp]
+27.0 +24.1 84 +37 +37 очень
душно
1011.8 1010.7 +29.7
00 15.07 ЮЗ 5 8000 м 9/5 360 м
[Sc Ac As Ci sp]
+26.5 +24.4 88 +37 +37 очень
душно
1014.1 1013.0
06 15.07 ЮЗ 6 8000 м 9/5 330 м
[Sc Ac trans Ci sp]
+26.2 +23.7 86 +36 +36 очень
душно
1012.4 1011.3 +26.0
12 15.07 ЮЗ 9 10 км 9/4 360 м
[Cu Sc Ac trans]
+28.3 +23.7 76 +39 +39 очень
душно
1013.9 1012.8
18 15.07 ЮЗ 6 10 км 9/3 360 м
[Cu Sc Ac trans Ci sp]
+27.0 +24.1 84 +37 +37 очень
душно
1012.5 1011.4 +29.4
00 16.07 ЮЗ 6 10 км 9/5 330 м
[Sc Ac trans Ci sp]
+26.5 +24.4 88 +37 +37 очень
душно
1014.6 1013.5

 

Местоположение метеостанции Cotonou (Бенин): широта 6.35 долгота 2.38 высота над уровнем моря 9 м.

В архиве по умолчанию представлена погода в Cotonou за последнюю неделю. Архивные данные за месяц целиком и за предыдущие месяцы, начиная с января 2011 года, Вы можете получить, выбрав интересующий диапазон дат из раскрывающегося списка и нажав кнопку "Ввод!".


*Определитесь, кто Вы:
робот инопланетянин человек

Внимание! Время в таблицах - всемирное. Для получения местного времени необходимо прибавить поправку, которая в Cotonou равна 1 ч.

Смотрите также архив погоды в соседних городах и на ближайших метеорологических станциях:

Погода в Bohicon (Бенин) (97 км)
Погода в Tabligbo (Того) (101 км)
Погода в Lagos (Нигерия) (108 км)
Погода в Lagos Oshodi (Нигерия) (112 км)
Погода в Lome (Того) (127 км)
Погода в Akatsi (Гана) (177 км)
Погода в Ijebu Ode (Нигерия) (179 км)
Погода в Save (Бенин) (187 км)
Погода в Atakpame (Того) (195 км)
Погода в Ada (Гана) (204 км)

Пояснения к столбцам:

Ветер - указаны скорость ветра в м/с - средняя за 10 мин, порывы в срок и между сроками (в фигурных скобках) и направление, откуда дует ветер: С - северный, СВ - северо-восточный, В - восточный, ЮВ - юго-восточный, Ю - южный, ЮЗ - юго-западный, З - западный, СЗ - северо-западный.
Видимость - горизонтальная дальность видимости в метрах или километрах. При видимости от 1 до 10 км при отсутствии осадков обычно наблюдается дымка, при ухудшении видимости до 1 км и менее - туман. В сухую погоду видимость может ухудшаться дымом, пылью или мглою.
Явления - указаны атмосферные явления, наблюдавшиеся в срок или в последний час перед сроком; фигурными скобками обозначены явления, наблюдавшиеся между сроками (за 1-3 часа до срока); квадратными скобками обозначены град или гололедные отложения с указанием их диаметра в мм.
Облачность - указаны через наклонную черту общая и нижняя облачность в баллах и высота нижней границы облаков в метрах; квадратными скобками обозначены формы облаков: Ci - перистые, Cs - перисто-слоистые, Cc - перисто-кучевые, Ac - высококучевые, As - высокослоистые, Sc - слоисто-кучевые, Ns - слоисто-дождевые, Cu - кучевые, Cb - кучево-дождевые. Подробнее классификацию облаков см. в Атласе облаков (PDF).
T - Температура воздуха - температура, измеренная на высоте 2 м над землей.
Td - Температура точки росы - температура, при понижении до которой содержащийся в воздухе водяной пар достигнет насыщения.
f - Относительная влажность воздуха - влажноcть воздуха, измеренная на высоте 2 м над землей.
Te - Эффективная температура - температура, которую ощущает одетый по сезону человек в тени. Характеристика душности погоды. При расчете учитывается влияние влажности воздуха и скорости ветра на теплоощущения человека.
Tes - Эффективная температура на солнце - температура, которую ощущает человек, с поправкой на солнечный нагрев. Характеристика знойности погоды. Зависит от высоты солнца над горизонтом, облачности и скорости ветра. Ночью, в пасмурную погоду, а также при ветре 12 м/с и более поправка равна нулю.
P - Атмосферное давление - приведенное к уровню моря атмосферное давление.
Po - Атмосферное давление - измеренное на уровне метеостанции атмосферное давление.
Tmin - Минимальная температура - минимум температуры воздуха на высоте 2 м над землей.
Tmax - Максимальная температура - максимум температуры воздуха на высоте 2 м над землей.
R - Количество осадков - Количество выпавших осадков за период времени, мм. При наведении курсора мыши на число - период времени, за который выпало указанное количество осадков.
R24 - Количество осадков - Количество выпавших осадков за 24 часа, мм.
S - Снежный покров - Высота снежного покрова, см. При наведении курсора мыши на число - состояние снежного покрова и степень покрытия местности в баллах.